Regional Weather Roundup
Issued by NWS Spokane, WA

Home | Current Version | Previous Version | Text Only | Print | Product List | Glossary On
Versions: 1 2 3 4 5 6 7 8 9 10 11 12 13 14 15 16 17 18 19 20 21 22 23 24 25 26 27 28 29 30 31 32 33 34 35 36 37 38 39 40 41 42 43 44 45 46 47 48 49 50
000
NZUS01 KOTX 241325
RWROTX

Eastern Washington/Northern Idaho Roundup
National Weather Service, Spokane WA
500 AM PST FRI NOV 24 2017

Note: "fair" indicated few or no clouds below 12,000 feet with no
significant weather and/or obstructions to visibility.

...Northeast Washington and Northern Idaho Panhandle...

CITY           SKY/WX    TMP DP  RH WIND       PRES   REMARKS
Spokane Intl   CLOUDY    36  34  92 S9        29.97R
Spokane Downto CLOUDY    40  35  83 CALM      29.99R
Coeur d Alene  MOCLDY    37  34  89 S3        29.99R
Deer Park      CLOUDY    35  32  88 S9        29.98R WCI  28
Sandpoint      MOCLDY    36  32  87 S7        29.97R
Bonners Ferry  FAIR      37  32  81 S3        29.92S

...Southeast Washington and southern Idaho Panhandle...

CITY           SKY/WX    TMP DP  RH WIND       PRES   REMARKS
Walla Walla    CLEAR     46  36  68 S14       30.07R
Pullman/Moscow MOCLDY    39  33  79 SW12      30.03R
Lewiston       PTCLDY    43  35  73 S3        30.03R
Lowell           N/A     42  42 100 CALM      30.05R
Grangeville    FAIR      36  32  87 N3        30.02R

...Columbia Basin...

CITY           SKY/WX    TMP DP  RH WIND       PRES   REMARKS
Ephrata        CLOUDY    44  31  60 SW15      29.95R
Moses Lake     CLOUDY    45  35  68 W9        29.98R
Pasco          PTCLDY    47  38  71 SW12      30.06R
Richland       MOSUNNY   45  39  79 CALM      30.05S
Hermiston      PTCLDY    42  35  76 SW9       30.08R
Pendleton      CLEAR     38  33  82 S9        30.07R

...East Slopes Cascades...

CITY           SKY/WX    TMP DP  RH WIND       PRES   REMARKS
The Dalles     PTCLDY    43  37  79 E6        30.08S
Yakima         MOCLDY    35  31  85 CALM      30.02R
Ellensburg     PTCLDY    41  34  76 SW8       30.00R
Stampede Pass  CLOUDY    32  30  92 SW12G22   29.97S WCI  23
Wenatchee      PTCLDY    38  34  85 NW5       29.96S
Omak           MOCLDY    36  33  89 SW7       29.92R FOG
Chelan           N/A     46  29  49 SW23        N/A
Sunnyside      PTSUNNY   33  32  94 CALM      30.04S

...Southern British Columbia...

CITY           SKY/WX    TMP DP  RH WIND       PRES   REMARKS
Penticton      LGT RAIN  43  34  70 S15       29.89R
Cranbrook      MOCLDY    32  28  86 CALM      29.83R
Osoyoos          N/A     37  34  87 E2          N/A
Creston          N/A     36  34  93 E3          N/A

...Western Montana...

CITY           SKY/WX    TMP DP  RH WIND       PRES   REMARKS
Kalispell      CLOUDY    39  30  70 SW7       29.90R
Libby            N/A     36  34  93 CALM      29.91R
Missoula       PTCLDY    37  28  70 CALM      29.95R

...Neighboring Cities...

CITY           SKY/WX    TMP DP  RH WIND       PRES   REMARKS
Seattle        MOCLDY    47  42  83 S15       30.06R
Portland       CLOUDY    48  44  86 CALM      30.13S
Boise          LGT RAIN  49  46  90 NW14      29.99R
Great Falls    CLEAR     34  20  56 SW17      29.79R WCI  23
Calgary        MOCLDY    37  19  48 VRB2      29.61R



USA.gov is the U.S. government's official web portal to all federal, state and local government web resources and services.